TimeMDT,TemperatureF,Dew PointF,Humidity,Sea Level PressureIn,VisibilityMPH,Wind Direction,Wind SpeedMPH,Gust SpeedMPH,PrecipitationIn,Events,Conditions,WindDirDegrees,DateUTC
12:53 AM,51.8,35.6,54,30.10,10.0,SE,11.5,-,N/A,,Clear,130,2012-11-03 06:53:00
1:53 AM,48.9,35.1,59,30.08,10.0,SE,8.1,-,N/A,,Clear,130,2012-11-03 07:53:00
2:53 AM,46.9,34.0,61,30.10,10.0,SE,9.2,-,N/A,,Clear,130,2012-11-03 08:53:00
3:53 AM,46.9,34.0,61,30.09,10.0,SE,10.4,-,N/A,,Clear,140,2012-11-03 09:53:00
4:53 AM,46.0,34.0,63,30.10,10.0,SE,8.1,-,N/A,,Clear,130,2012-11-03 10:53:00
5:53 AM,42.1,35.1,76,30.12,10.0,Calm,Calm,-,N/A,,Clear,0,2012-11-03 11:53:00
6:53 AM,42.1,35.1,76,30.13,10.0,Calm,Calm,-,N/A,,Clear,0,2012-11-03 12:53:00
7:53 AM,42.1,35.1,76,30.16,10.0,NW,3.5,-,N/A,,Partly Cloudy,320,2012-11-03 13:53:00
8:53 AM,44.1,34.0,68,30.19,10.0,North,3.5,-,N/A,,Overcast,350,2012-11-03 14:53:00
9:53 AM,46.0,34.0,63,30.21,10.0,Calm,Calm,-,N/A,,Overcast,0,2012-11-03 15:53:00
10:53 AM,50.0,35.1,57,30.21,10.0,Calm,Calm,-,N/A,,Overcast,0,2012-11-03 16:53:00
11:53 AM,51.1,35.1,54,30.21,10.0,ESE,4.6,-,N/A,,Overcast,110,2012-11-03 17:53:00
12:53 PM,55.9,35.1,45,30.20,10.0,Calm,Calm,-,N/A,,Overcast,0,2012-11-03 18:53:00
1:53 PM,60.1,34.0,38,30.18,10.0,Calm,Calm,-,N/A,,Overcast,0,2012-11-03 19:53:00
2:53 PM,62.1,34.0,35,30.16,10.0,Calm,Calm,-,N/A,,Mostly Cloudy,0,2012-11-03 20:53:00
3:53 PM,64.0,33.1,31,30.15,10.0,Calm,Calm,-,N/A,,Clear,0,2012-11-03 21:53:00
4:53 PM,64.0,33.1,31,30.17,10.0,Calm,Calm,-,N/A,,Clear,0,2012-11-03 22:53:00
5:53 PM,63.0,33.1,33,30.17,10.0,Calm,Calm,-,N/A,,Scattered Clouds,0,2012-11-03 23:53:00
6:53 PM,59.0,34.0,39,30.18,10.0,Calm,Calm,-,N/A,,Clear,0,2012-11-04 00:53:00
7:53 PM,55.0,37.0,51,30.20,10.0,Calm,Calm,-,N/A,,Clear,0,2012-11-04 01:53:00
8:53 PM,54.0,39.0,57,30.21,10.0,SSW,3.5,-,N/A,,Clear,210,2012-11-04 02:53:00
9:53 PM,52.0,39.0,61,30.22,10.0,East,3.5,-,N/A,,Clear,90,2012-11-04 03:53:00
10:53 PM,50.0,37.9,63,30.22,10.0,SE,3.5,-,N/A,,Clear,130,2012-11-04 04:53:00
11:53 PM,50.0,39.0,66,30.22,10.0,Calm,Calm,-,N/A,,Clear,0,2012-11-04 05:53:00